Time,TemperatureF,DewpointF,PressureIn,WindDirection,WindDirectionDegrees,WindSpeedMPH,WindSpeedGustMPH,Humidity,HourlyPrecipIn,Conditions,Clouds,dailyrainin,SoftwareType,DateUTC
2013-07-26 00:01:00,59.9,57.6,29.88,NW,317,0.0,0.0,92,0.00,,-RA,0.00,VWS V14.00,2013-07-26 04:01:00,
2013-07-26 00:02:00,59.9,57.6,29.88,NW,317,0.0,0.0,92,0.00,,-RA,0.00,VWS V14.00,2013-07-26 04:02:00,
2013-07-26 00:07:00,60.1,57.8,29.88,SSE,166,0.0,0.0,92,0.00,,-RA,0.00,VWS V14.00,2013-07-26 04:07:00,
2013-07-26 00:12:00,60.1,57.8,29.88,SSE,163,0.0,0.0,92,0.00,,-RA,0.00,VWS V14.00,2013-07-26 04:12:00,
2013-07-26 00:17:00,60.1,57.8,29.88,SE,136,0.0,0.0,92,0.00,,-RA,0.00,VWS V14.00,2013-07-26 04:17:00,
2013-07-26 00:22:00,60.1,57.8,29.88,SE,136,0.0,0.0,92,0.00,,-RA,0.00,VWS V14.00,2013-07-26 04:22:00,
2013-07-26 00:27:00,59.9,57.6,29.88,SE,137,0.0,0.0,92,0.00,,-RA,0.00,VWS V14.00,2013-07-26 04:27:00,
2013-07-26 00:32:00,59.9,57.6,29.88,SE,137,0.0,0.0,92,0.00,,-RA,0.00,VWS V14.00,2013-07-26 04:32:00,
2013-07-26 00:37:00,60.1,57.8,29.88,South,175,0.0,0.0,92,0.00,,-RA,0.00,VWS V14.00,2013-07-26 04:37:00,
2013-07-26 00:42:00,60.1,57.8,29.88,South,175,0.0,0.0,92,0.00,,-RA,0.00,VWS V14.00,2013-07-26 04:42:00,
2013-07-26 00:47:00,59.9,57.6,29.88,South,184,0.0,0.0,92,0.00,,-RA,0.00,VWS V14.00,2013-07-26 04:47:00,
2013-07-26 00:52:00,60.1,57.8,29.88,South,189,0.0,0.0,92,0.00,,-RA,0.00,VWS V14.00,2013-07-26 04:52:00,
2013-07-26 00:57:00,60.3,58.2,29.88,SSW,210,0.0,0.0,93,0.00,,-RA,0.00,VWS V14.00,2013-07-26 04:57:00,
2013-07-26 01:02:00,60.3,58.2,29.88,South,185,0.0,0.0,93,0.00,,-RA,0.00,VWS V14.00,2013-07-26 05:02:00,
2013-07-26 01:07:00,60.3,58.2,29.88,South,185,0.0,0.0,93,0.00,,-RA,0.00,VWS V14.00,2013-07-26 05:07:00,
2013-07-26 01:12:00,60.3,58.2,29.88,South,185,0.0,0.0,93,0.00,,-RA,0.00,VWS V14.00,2013-07-26 05:12:00,
2013-07-26 01:17:00,60.4,58.4,29.88,South,185,0.0,0.0,93,0.00,,-RA,0.00,VWS V14.00,2013-07-26 05:17:00,
2013-07-26 01:22:00,60.3,58.2,29.88,South,185,0.0,0.0,93,0.00,,-RA,0.00,VWS V14.00,2013-07-26 05:22:00,
2013-07-26 01:27:00,60.3,58.2,29.88,South,185,0.0,0.0,93,0.00,,-RA,0.00,VWS V14.00,2013-07-26 05:27:00,
2013-07-26 01:32:00,60.4,58.4,29.88,South,185,0.0,0.0,93,0.00,,-RA,0.00,VWS V14.00,2013-07-26 05:32:00,
2013-07-26 01:37:00,60.4,58.4,29.88,South,185,0.0,0.0,93,0.00,,-RA,0.00,VWS V14.00,2013-07-26 05:37:00,
2013-07-26 01:42:00,60.4,58.4,29.88,WSW,237,0.0,0.0,93,0.00,,-RA,0.00,VWS V14.00,2013-07-26 05:42:00,
2013-07-26 01:47:00,60.4,58.4,29.88,West,266,0.0,0.0,93,0.00,,-RA,0.00,VWS V14.00,2013-07-26 05:47:00,
2013-07-26 01:52:00,60.4,58.4,29.88,NW,308,0.0,0.0,93,0.00,,-RA,0.00,VWS V14.00,2013-07-26 05:52:00,
2013-07-26 01:57:00,60.4,58.4,29.85,NW,307,0.0,0.0,93,0.00,,-RA,0.00,VWS V14.00,2013-07-26 05:57:00,
2013-07-26 02:02:00,60.6,58.6,29.85,NW,307,0.0,0.0,93,0.00,,-RA,0.00,VWS V14.00,2013-07-26 06:02:00,
2013-07-26 02:07:00,60.6,58.6,29.85,NW,304,0.0,0.0,93,0.00,,-RA,0.00,VWS V14.00,2013-07-26 06:07:00,
2013-07-26 02:12:00,60.6,58.6,29.85,WSW,249,0.0,0.0,93,0.00,,-RA,0.00,VWS V14.00,2013-07-26 06:12:00,
2013-07-26 02:17:00,60.6,58.6,29.85,SSW,201,0.0,0.0,93,0.00,,-RA,0.00,VWS V14.00,2013-07-26 06:17:00,
2013-07-26 02:22:00,60.6,58.6,29.85,SSE,153,0.0,0.0,93,0.00,,-RA,0.00,VWS V14.00,2013-07-26 06:22:00,
2013-07-26 02:27:00,60.6,58.6,29.85,WSW,238,0.0,0.0,93,0.00,,-RA,0.00,VWS V14.00,2013-07-26 06:27:00,
2013-07-26 02:32:00,60.6,58.6,29.85,WSW,252,0.0,0.0,93,0.00,,-RA,0.00,VWS V14.00,2013-07-26 06:32:00,
2013-07-26 02:37:00,60.6,58.6,29.85,NNE,27,0.0,0.0,93,0.00,,-RA,0.00,VWS V14.00,2013-07-26 06:37:00,
2013-07-26 02:42:00,60.6,58.6,29.85,NNE,27,0.0,0.0,93,0.00,,-RA,0.00,VWS V14.00,2013-07-26 06:42:00,
2013-07-26 02:47:00,60.6,58.6,29.85,NNE,28,0.0,0.0,93,0.00,,-RA,0.00,VWS V14.00,2013-07-26 06:47:00,
2013-07-26 02:52:00,60.6,58.6,29.85,West,264,0.0,0.0,93,0.04,,-RA,0.04,VWS V14.00,2013-07-26 06:52:00,
2013-07-26 02:57:00,60.8,59.1,29.85,NNE,27,0.0,3.1,94,0.04,,-RA,0.04,VWS V14.00,2013-07-26 06:57:00,
2013-07-26 03:02:00,60.8,59.1,29.85,WSW,258,0.0,0.0,94,0.04,,-RA,0.04,VWS V14.00,2013-07-26 07:02:00,
2013-07-26 03:07:00,60.8,59.1,29.85,WSW,257,0.0,0.0,94,0.04,,-RA,0.04,VWS V14.00,2013-07-26 07:07:00,
2013-07-26 03:12:00,60.6,58.9,29.85,WSW,256,0.0,0.0,94,0.04,,-RA,0.04,VWS V14.00,2013-07-26 07:12:00,
2013-07-26 03:17:00,60.6,58.9,29.85,NE,43,0.0,0.0,94,0.04,,-RA,0.04,VWS V14.00,2013-07-26 07:17:00,
2013-07-26 03:22:00,60.8,59.1,29.85,NNW,334,0.0,0.0,94,0.04,,-RA,0.04,VWS V14.00,2013-07-26 07:22:00,
2013-07-26 03:27:00,61.0,59.2,29.85,NNW,334,0.0,0.0,94,0.04,,-RA,0.04,VWS V14.00,2013-07-26 07:27:00,
2013-07-26 03:32:00,61.0,59.2,29.85,NNW,334,0.0,0.0,94,0.04,,-RA,0.04,VWS V14.00,2013-07-26 07:32:00,
2013-07-26 03:37:00,61.0,59.2,29.85,NNW,334,0.0,0.0,94,0.08,,-RA,0.08,VWS V14.00,2013-07-26 07:37:00,
2013-07-26 03:42:00,61.0,59.2,29.85,NNW,333,0.0,0.0,94,0.08,,-RA,0.08,VWS V14.00,2013-07-26 07:42:00,
2013-07-26 03:47:00,61.0,59.2,29.85,NNW,333,0.0,0.0,94,0.08,,-RA,0.08,VWS V14.00,2013-07-26 07:47:00,
2013-07-26 03:52:00,61.0,59.2,29.85,NNW,333,0.0,0.0,94,0.04,,-RA,0.08,VWS V14.00,2013-07-26 07:52:00,
2013-07-26 03:57:00,61.0,59.2,29.85,NNW,333,0.0,0.0,94,0.04,,-RA,0.08,VWS V14.00,2013-07-26 07:57:00,
2013-07-26 04:02:00,61.0,59.2,29.85,NNW,333,0.0,0.0,94,0.08,,-RA,0.12,VWS V14.00,2013-07-26 08:02:00,
2013-07-26 04:07:00,60.8,59.1,29.85,NNE,25,0.0,0.0,94,0.08,,-RA,0.12,VWS V14.00,2013-07-26 08:07:00,
2013-07-26 04:12:00,60.6,58.9,29.85,WNW,290,0.0,0.0,94,0.08,,-RA,0.12,VWS V14.00,2013-07-26 08:12:00,
2013-07-26 04:17:00,60.6,58.9,29.85,WNW,293,0.0,0.0,94,0.08,,-RA,0.12,VWS V14.00,2013-07-26 08:17:00,
2013-07-26 04:22:00,60.6,58.9,29.85,WNW,293,0.0,0.0,94,0.08,,-RA,0.12,VWS V14.00,2013-07-26 08:22:00,
2013-07-26 04:27:00,60.6,58.9,29.83,NNE,12,0.0,0.0,94,0.08,,-RA,0.12,VWS V14.00,2013-07-26 08:27:00,
2013-07-26 04:32:00,60.6,58.9,29.83,NNW,343,0.0,0.0,94,0.08,,-RA,0.12,VWS V14.00,2013-07-26 08:32:00,
2013-07-26 04:37:00,60.8,59.4,29.83,SSE,168,0.0,0.0,95,0.04,,-RA,0.12,VWS V14.00,2013-07-26 08:37:00,
2013-07-26 04:42:00,60.8,59.4,29.83,NE,41,0.0,0.0,95,0.04,,-RA,0.12,VWS V14.00,2013-07-26 08:42:00,
2013-07-26 04:48:00,60.8,59.4,29.83,WSW,248,0.0,0.0,95,0.04,,-RA,0.12,VWS V14.00,2013-07-26 08:48:00,
2013-07-26 04:52:00,60.8,59.4,29.83,WSW,249,0.0,0.0,95,0.04,,-RA,0.12,VWS V14.00,2013-07-26 08:52:00,
2013-07-26 04:57:00,60.8,59.4,29.85,ENE,62,0.0,2.7,95,0.04,,-RA,0.12,VWS V14.00,2013-07-26 08:57:00,
2013-07-26 05:03:00,60.6,59.2,29.85,North,4,0.0,0.0,95,0.00,,-RA,0.12,VWS V14.00,2013-07-26 09:03:00,
2013-07-26 05:08:00,60.6,59.2,29.85,NE,34,0.0,0.0,95,0.00,,-RA,0.12,VWS V14.00,2013-07-26 09:08:00,
2013-07-26 05:13:00,60.6,59.2,29.85,WSW,245,0.0,0.0,95,0.04,,-RA,0.16,VWS V14.00,2013-07-26 09:13:00,
2013-07-26 05:18:00,60.8,59.4,29.85,SW,226,0.0,0.0,95,0.04,,-RA,0.16,VWS V14.00,2013-07-26 09:18:00,
2013-07-26 05:23:00,60.8,59.4,29.85,ESE,114,0.0,0.0,95,0.04,,-RA,0.16,VWS V14.00,2013-07-26 09:23:00,
2013-07-26 05:28:00,60.8,59.4,29.83,East,84,0.0,0.0,95,0.04,,-RA,0.16,VWS V14.00,2013-07-26 09:28:00,
2013-07-26 05:33:00,60.8,59.4,29.83,South,177,0.0,0.0,95,0.04,,-RA,0.16,VWS V14.00,2013-07-26 09:33:00,
2013-07-26 05:38:00,60.8,59.4,29.83,SSW,210,0.0,0.0,95,0.04,,-RA,0.16,VWS V14.00,2013-07-26 09:38:00,
2013-07-26 05:43:00,61.0,59.5,29.83,NNE,22,0.0,0.0,95,0.04,,-RA,0.16,VWS V14.00,2013-07-26 09:43:00,
2013-07-26 05:48:00,61.0,59.8,29.83,South,188,0.0,0.0,96,0.04,,-RA,0.16,VWS V14.00,2013-07-26 09:48:00,
2013-07-26 05:53:00,60.8,59.7,29.83,NE,52,0.0,0.0,96,0.04,,-RA,0.16,VWS V14.00,2013-07-26 09:53:00,
2013-07-26 05:58:00,60.8,59.7,29.83,SSE,166,0.0,0.0,96,0.04,,-RA,0.16,VWS V14.00,2013-07-26 09:58:00,
2013-07-26 06:03:00,60.8,59.7,29.83,SW,222,0.0,2.7,96,0.04,,-RA,0.16,VWS V14.00,2013-07-26 10:03:00,
2013-07-26 06:08:00,61.0,59.8,29.83,SW,221,2.7,2.7,96,0.04,,-RA,0.16,VWS V14.00,2013-07-26 10:08:00,
2013-07-26 06:13:00,61.0,59.8,29.85,SW,218,0.0,0.0,96,0.00,,-RA,0.16,VWS V14.00,2013-07-26 10:13:00,
2013-07-26 06:18:00,61.0,59.8,29.85,WNW,284,0.0,0.0,96,0.00,,-RA,0.16,VWS V14.00,2013-07-26 10:18:00,
2013-07-26 06:23:00,61.0,59.8,29.85,West,259,0.0,0.0,96,0.00,,-RA,0.16,VWS V14.00,2013-07-26 10:23:00,
2013-07-26 06:28:00,61.0,59.8,29.85,NW,321,0.0,0.0,96,0.00,,-RA,0.16,VWS V14.00,2013-07-26 10:28:00,
2013-07-26 06:33:00,61.0,59.8,29.85,NW,323,0.0,0.0,96,0.00,,-RA,0.16,VWS V14.00,2013-07-26 10:33:00,
2013-07-26 06:38:00,61.0,59.8,29.85,NNW,327,0.0,0.0,96,0.00,,-RA,0.16,VWS V14.00,2013-07-26 10:38:00,
2013-07-26 06:43:00,60.8,59.7,29.85,WNW,297,0.0,0.0,96,0.00,,-RA,0.16,VWS V14.00,2013-07-26 10:43:00,
2013-07-26 06:48:00,61.0,59.8,29.85,WSW,243,0.0,0.0,96,0.00,,-RA,0.16,VWS V14.00,2013-07-26 10:48:00,
2013-07-26 06:53:00,61.0,59.8,29.85,WNW,300,0.0,0.0,96,0.04,,-RA,0.20,VWS V14.00,2013-07-26 10:53:00,
2013-07-26 06:58:00,61.0,59.8,29.85,West,262,0.0,2.7,96,0.04,,-RA,0.20,VWS V14.00,2013-07-26 10:58:00,
2013-07-26 07:03:00,61.2,60.0,29.85,NW,313,0.0,0.0,96,0.04,,-RA,0.20,VWS V14.00,2013-07-26 11:03:00,
2013-07-26 07:08:00,61.0,59.8,29.85,NE,42,0.0,0.0,96,0.04,,-RA,0.20,VWS V14.00,2013-07-26 11:08:00,
2013-07-26 07:13:00,61.0,59.8,29.85,NW,321,0.0,0.0,96,0.04,,-RA,0.20,VWS V14.00,2013-07-26 11:13:00,
2013-07-26 07:18:00,60.8,60.0,29.85,NNW,342,0.0,0.0,97,0.04,,-RA,0.20,VWS V14.00,2013-07-26 11:18:00,
2013-07-26 07:23:00,61.0,60.1,29.85,NNW,332,0.0,3.6,97,0.04,,-RA,0.20,VWS V14.00,2013-07-26 11:23:00,
2013-07-26 07:28:00,61.2,60.3,29.85,NNW,333,0.0,0.0,97,0.04,,-RA,0.20,VWS V14.00,2013-07-26 11:28:00,
2013-07-26 07:33:00,61.3,60.5,29.85,SSE,157,0.0,0.0,97,0.04,,-RA,0.20,VWS V14.00,2013-07-26 11:33:00,
2013-07-26 07:38:00,61.3,60.5,29.85,SSE,149,0.0,0.0,97,0.04,,-RA,0.20,VWS V14.00,2013-07-26 11:38:00,
2013-07-26 07:43:00,61.3,60.5,29.85,WNW,292,0.0,0.0,97,0.04,,-RA,0.20,VWS V14.00,2013-07-26 11:43:00,
2013-07-26 07:48:00,61.3,60.5,29.85,NW,311,0.0,0.0,97,0.04,,-RA,0.20,VWS V14.00,2013-07-26 11:48:00,
2013-07-26 07:53:00,61.3,60.5,29.85,NNE,28,0.0,0.0,97,0.04,,-RA,0.20,VWS V14.00,2013-07-26 11:53:00,
2013-07-26 07:58:00,61.3,60.5,29.85,NW,308,0.0,3.1,97,0.00,,-RA,0.20,VWS V14.00,2013-07-26 11:58:00,
2013-07-26 08:03:00,61.3,60.5,29.85,NNE,13,0.0,0.0,97,0.00,,-RA,0.20,VWS V14.00,2013-07-26 12:03:00,
2013-07-26 08:08:00,61.3,60.5,29.85,ESE,108,0.0,0.0,97,0.00,,-RA,0.20,VWS V14.00,2013-07-26 12:08:00,
2013-07-26 08:13:00,61.7,60.8,29.85,NE,49,0.0,0.0,97,0.00,,-RA,0.20,VWS V14.00,2013-07-26 12:13:00,
2013-07-26 08:18:00,61.7,60.8,29.85,NNE,15,0.0,0.0,97,0.00,,-RA,0.20,VWS V14.00,2013-07-26 12:18:00,
2013-07-26 08:23:00,61.7,60.8,29.85,North,11,0.0,0.0,97,0.00,,-RA,0.20,VWS V14.00,2013-07-26 12:23:00,
2013-07-26 08:28:00,61.9,61.0,29.85,North,5,0.0,2.7,97,0.00,,-RA,0.20,VWS V14.00,2013-07-26 12:28:00,
2013-07-26 08:33:00,61.7,60.8,29.85,NNE,16,0.0,0.0,97,0.00,,-RA,0.20,VWS V14.00,2013-07-26 12:33:00,
2013-07-26 08:38:00,61.9,61.0,29.85,NNW,330,0.0,0.0,97,0.00,,-RA,0.20,VWS V14.00,2013-07-26 12:38:00,
2013-07-26 08:43:00,61.9,61.0,29.85,NNW,346,0.0,0.0,97,0.00,,-RA,0.20,VWS V14.00,2013-07-26 12:43:00,
2013-07-26 08:48:00,61.9,61.0,29.85,NE,43,3.1,3.1,97,0.00,,-RA,0.20,VWS V14.00,2013-07-26 12:48:00,
2013-07-26 08:53:00,61.9,61.0,29.85,NW,320,0.0,0.0,97,0.00,,-RA,0.20,VWS V14.00,2013-07-26 12:53:00,
2013-07-26 08:58:00,62.1,61.2,29.85,SSW,196,0.0,3.6,97,0.00,,-RA,0.20,VWS V14.00,2013-07-26 12:58:00,
2013-07-26 09:03:00,62.1,61.2,29.85,NNW,329,0.0,0.0,97,0.00,,-RA,0.20,VWS V14.00,2013-07-26 13:03:00,
2013-07-26 09:08:00,61.9,61.0,29.85,North,5,0.0,0.0,97,0.00,,-RA,0.20,VWS V14.00,2013-07-26 13:08:00,
2013-07-26 09:13:00,62.1,61.2,29.85,North,0,0.0,0.0,97,0.00,,-RA,0.20,VWS V14.00,2013-07-26 13:13:00,
2013-07-26 09:18:00,62.2,61.4,29.85,South,179,0.0,0.0,97,0.00,,-RA,0.20,VWS V14.00,2013-07-26 13:18:00,
2013-07-26 09:23:00,62.4,61.6,29.85,SSW,212,0.0,2.7,97,0.00,,-RA,0.20,VWS V14.00,2013-07-26 13:23:00,
2013-07-26 09:28:00,62.4,61.6,29.85,SSW,210,0.0,0.0,97,0.00,,-RA,0.20,VWS V14.00,2013-07-26 13:28:00,
2013-07-26 09:33:00,62.2,61.4,29.85,NNE,15,0.0,0.0,97,0.00,,-RA,0.20,VWS V14.00,2013-07-26 13:33:00,
2013-07-26 09:38:00,62.2,61.4,29.85,NW,316,0.0,0.0,97,0.00,,-RA,0.20,VWS V14.00,2013-07-26 13:38:00,
2013-07-26 09:43:00,62.2,61.4,29.85,NW,319,0.0,0.0,97,0.00,,-RA,0.20,VWS V14.00,2013-07-26 13:43:00,
2013-07-26 09:48:00,62.1,61.2,29.85,West,275,0.0,0.0,97,0.00,,-RA,0.20,VWS V14.00,2013-07-26 13:48:00,
2013-07-26 09:53:00,61.9,61.0,29.85,West,276,0.0,0.0,97,0.00,,-RA,0.20,VWS V14.00,2013-07-26 13:53:00,
2013-07-26 09:58:00,61.9,61.0,29.85,East,80,0.0,0.0,97,0.00,,-RA,0.20,VWS V14.00,2013-07-26 13:58:00,
2013-07-26 10:03:00,62.1,61.2,29.85,SSW,198,0.0,0.0,97,0.00,,-RA,0.20,VWS V14.00,2013-07-26 14:03:00,
2013-07-26 10:08:00,62.2,61.4,29.85,SSE,161,0.0,0.0,97,0.00,,-RA,0.20,VWS V14.00,2013-07-26 14:08:00,
2013-07-26 10:13:00,62.2,61.4,29.85,SW,223,0.0,0.0,97,0.00,,-RA,0.20,VWS V14.00,2013-07-26 14:13:00,
2013-07-26 10:18:00,62.4,61.6,29.85,SW,223,0.0,0.0,97,0.00,,-RA,0.20,VWS V14.00,2013-07-26 14:18:00,
2013-07-26 10:23:00,62.2,61.4,29.85,SW,220,0.0,0.0,97,0.00,,-RA,0.20,VWS V14.00,2013-07-26 14:23:00,
2013-07-26 10:28:00,62.4,61.6,29.85,SW,220,0.0,0.0,97,0.04,,-RA,0.24,VWS V14.00,2013-07-26 14:28:00,
2013-07-26 10:33:00,62.4,61.6,29.85,NNE,33,0.0,0.0,97,0.04,,-RA,0.24,VWS V14.00,2013-07-26 14:33:00,
2013-07-26 10:38:00,62.6,61.7,29.85,NW,312,0.0,0.0,97,0.04,,-RA,0.00,VWS V14.00,2013-07-26 14:38:00,
2013-07-26 10:43:00,62.8,61.9,29.85,NNE,21,0.0,0.0,97,0.04,,-RA,0.24,VWS V14.00,2013-07-26 14:43:00,
2013-07-26 10:48:00,63.0,62.1,29.85,NNE,12,0.0,0.0,97,0.04,,-RA,0.24,VWS V14.00,2013-07-26 14:48:00,
2013-07-26 10:53:00,63.1,62.3,29.85,SSW,196,0.0,0.0,97,0.04,,-RA,0.24,VWS V14.00,2013-07-26 14:53:00,
2013-07-26 10:58:00,63.5,62.6,29.85,South,175,3.1,4.0,97,0.04,,-RA,0.24,VWS V14.00,2013-07-26 14:58:00,
2013-07-26 11:03:00,63.7,62.8,29.85,WNW,286,0.0,0.0,97,0.04,,-RA,0.24,VWS V14.00,2013-07-26 15:03:00,
2013-07-26 11:08:00,63.9,63.0,29.85,West,272,0.0,0.0,97,0.04,,-RA,0.24,VWS V14.00,2013-07-26 15:08:00,
2013-07-26 11:13:00,64.2,63.3,29.85,South,182,0.0,0.0,97,0.04,,-RA,0.24,VWS V14.00,2013-07-26 15:13:00,
2013-07-26 11:18:00,64.2,63.3,29.85,NW,325,0.0,0.0,97,0.04,,-RA,0.24,VWS V14.00,2013-07-26 15:18:00,
2013-07-26 11:23:00,64.2,63.3,29.85,NW,308,0.0,0.0,97,0.04,,-RA,0.24,VWS V14.00,2013-07-26 15:23:00,
2013-07-26 11:28:00,64.4,63.5,29.85,WNW,285,0.0,3.1,97,0.00,,-RA,0.24,VWS V14.00,2013-07-26 15:28:00,
2013-07-26 11:33:00,64.4,63.5,29.85,South,189,0.0,3.1,97,0.00,,-RA,0.24,VWS V14.00,2013-07-26 15:33:00,
2013-07-26 11:38:00,64.6,63.7,29.85,SW,224,0.0,0.0,97,0.00,,-RA,0.24,VWS V14.00,2013-07-26 15:38:00,
2013-07-26 11:43:00,65.1,64.2,29.85,SE,129,0.0,0.0,97,0.00,,-RA,0.24,VWS V14.00,2013-07-26 15:43:00,
2013-07-26 11:48:00,64.8,63.9,29.85,West,261,0.0,0.0,97,0.00,,-RA,0.24,VWS V14.00,2013-07-26 15:48:00,
2013-07-26 11:53:00,64.4,63.5,29.85,NNW,331,0.0,0.0,97,0.00,,-RA,0.24,VWS V14.00,2013-07-26 15:53:00,
2013-07-26 11:58:00,64.2,63.3,29.85,West,266,0.0,0.0,97,0.00,,-RA,0.24,VWS V14.00,2013-07-26 15:58:00,
2013-07-26 12:03:00,64.4,63.5,29.85,West,267,0.0,0.0,97,0.00,,-RA,0.24,VWS V14.00,2013-07-26 16:03:00,
2013-07-26 12:08:00,64.4,63.5,29.85,West,267,0.0,0.0,97,0.00,,-RA,0.24,VWS V14.00,2013-07-26 16:08:00,
2013-07-26 12:14:00,64.6,63.7,29.85,NW,315,0.0,0.0,97,0.00,,-RA,0.24,VWS V14.00,2013-07-26 16:14:00,
2013-07-26 12:19:00,64.9,64.1,29.85,NW,315,0.0,0.0,97,0.00,,-RA,0.24,VWS V14.00,2013-07-26 16:19:00,
2013-07-26 12:24:00,65.3,64.4,29.85,SSE,168,0.0,0.0,97,0.00,,-RA,0.24,VWS V14.00,2013-07-26 16:24:00,
2013-07-26 12:29:00,65.5,64.6,29.85,WSW,258,0.0,2.7,97,0.00,,-RA,0.24,VWS V14.00,2013-07-26 16:29:00,
2013-07-26 12:33:00,65.3,64.4,29.85,West,272,0.0,0.0,97,0.00,,-RA,0.24,VWS V14.00,2013-07-26 16:33:00,
2013-07-26 12:39:00,65.7,64.8,29.85,SSE,162,0.0,0.0,97,0.00,,-RA,0.24,VWS V14.00,2013-07-26 16:39:00,
2013-07-26 12:44:00,66.0,65.2,29.85,WNW,302,0.0,0.0,97,0.00,,-RA,0.24,VWS V14.00,2013-07-26 16:44:00,
2013-07-26 12:49:00,66.6,65.7,29.85,SW,220,0.0,0.0,97,0.00,,-RA,0.24,VWS V14.00,2013-07-26 16:49:00,
2013-07-26 12:54:00,66.7,65.9,29.85,South,179,0.0,2.7,97,0.00,,-RA,0.24,VWS V14.00,2013-07-26 16:54:00,
2013-07-26 12:59:00,66.9,66.0,29.85,West,274,0.0,2.7,97,0.00,,-RA,0.24,VWS V14.00,2013-07-26 16:59:00,
2013-07-26 13:04:00,67.5,66.6,29.85,North,8,0.0,0.0,97,0.00,,-RA,0.24,VWS V14.00,2013-07-26 17:04:00,
2013-07-26 13:09:00,68.0,67.1,29.85,ESE,111,0.0,0.0,97,0.00,,-RA,0.24,VWS V14.00,2013-07-26 17:09:00,
2013-07-26 13:14:00,68.5,67.7,29.85,SE,139,0.0,0.0,97,0.00,,-RA,0.24,VWS V14.00,2013-07-26 17:14:00,
2013-07-26 13:19:00,69.1,68.2,29.85,SW,230,0.0,0.0,97,0.00,,-RA,0.24,VWS V14.00,2013-07-26 17:19:00,
2013-07-26 13:24:00,69.6,68.7,29.85,West,268,0.0,0.0,97,0.00,,-RA,0.24,VWS V14.00,2013-07-26 17:24:00,
2013-07-26 13:29:00,69.8,68.9,29.85,SE,135,3.1,3.1,97,0.00,,-RA,0.24,VWS V14.00,2013-07-26 17:29:00,
2013-07-26 13:34:00,69.8,68.9,29.85,NW,304,0.0,0.0,97,0.00,,-RA,0.24,VWS V14.00,2013-07-26 17:34:00,
2013-07-26 13:39:00,70.3,69.4,29.85,SW,223,0.0,0.0,97,0.00,,-RA,0.24,VWS V14.00,2013-07-26 17:39:00,
2013-07-26 13:44:00,70.7,69.8,29.85,SW,231,0.0,0.0,97,0.00,,-RA,0.24,VWS V14.00,2013-07-26 17:44:00,
2013-07-26 13:49:00,70.7,69.8,29.85,SW,233,0.0,3.1,97,0.00,,-RA,0.24,VWS V14.00,2013-07-26 17:49:00,
2013-07-26 13:54:00,70.7,69.5,29.85,WSW,251,0.0,2.7,96,0.00,,-RA,0.24,VWS V14.00,2013-07-26 17:54:00,
2013-07-26 13:59:00,70.9,69.7,29.85,WSW,250,0.0,0.0,96,0.00,,-RA,0.24,VWS V14.00,2013-07-26 17:59:00,
2013-07-26 14:04:00,71.1,69.6,29.85,WSW,250,0.0,0.0,95,0.00,,-RA,0.24,VWS V14.00,2013-07-26 18:04:00,
2013-07-26 14:09:00,71.2,69.7,29.85,WSW,250,0.0,0.0,95,0.00,,-RA,0.24,VWS V14.00,2013-07-26 18:09:00,
2013-07-26 14:14:00,71.4,69.9,29.85,WSW,249,0.0,0.0,95,0.00,,-RA,0.24,VWS V14.00,2013-07-26 18:14:00,
2013-07-26 14:19:00,71.6,69.8,29.85,WSW,249,0.0,0.0,94,0.00,,-RA,0.24,VWS V14.00,2013-07-26 18:19:00,
2013-07-26 14:24:00,71.4,69.6,29.85,WSW,249,0.0,0.0,94,0.00,,-RA,0.24,VWS V14.00,2013-07-26 18:24:00,
2013-07-26 14:29:00,70.7,68.6,29.85,NW,307,0.0,0.0,93,0.00,,-RA,0.24,VWS V14.00,2013-07-26 18:29:00,
2013-07-26 14:34:00,70.3,67.9,29.85,NW,308,0.0,3.6,92,0.00,,-RA,0.24,VWS V14.00,2013-07-26 18:34:00,
2013-07-26 14:39:00,70.3,67.6,29.85,NW,308,0.0,0.0,91,0.00,,-RA,0.24,VWS V14.00,2013-07-26 18:39:00,
2013-07-26 14:44:00,70.3,67.6,29.85,NNW,330,0.0,0.0,91,0.00,,-RA,0.24,VWS V14.00,2013-07-26 18:44:00,
2013-07-26 14:49:00,70.7,67.6,29.85,NW,319,0.0,0.0,90,0.00,,-RA,0.24,VWS V14.00,2013-07-26 18:49:00,
2013-07-26 14:54:00,70.9,67.8,29.85,NW,319,0.0,0.0,90,0.00,,-RA,0.24,VWS V14.00,2013-07-26 18:54:00,
2013-07-26 14:59:00,71.2,68.5,29.85,NW,319,0.0,0.0,91,0.00,,-RA,0.24,VWS V14.00,2013-07-26 18:59:00,
2013-07-26 15:04:00,71.1,68.0,29.85,NW,319,0.0,0.0,90,0.00,,-RA,0.24,VWS V14.00,2013-07-26 19:04:00,
2013-07-26 15:09:00,71.2,68.2,29.85,NW,317,0.0,0.0,90,0.00,,-RA,0.24,VWS V14.00,2013-07-26 19:09:00,
2013-07-26 15:14:00,71.6,68.2,29.85,NW,317,0.0,0.0,89,0.00,,-RA,0.24,VWS V14.00,2013-07-26 19:14:00,
2013-07-26 15:19:00,71.8,68.4,29.85,NW,318,0.0,0.0,89,0.00,,-RA,0.24,VWS V14.00,2013-07-26 19:19:00,
2013-07-26 15:24:00,72.0,68.2,29.85,NW,317,0.0,0.0,88,0.00,,-RA,0.24,VWS V14.00,2013-07-26 19:24:00,
2013-07-26 15:29:00,72.3,67.9,29.85,NW,317,0.0,0.0,86,0.00,,-RA,0.24,VWS V14.00,2013-07-26 19:29:00,
2013-07-26 15:34:00,72.5,67.4,29.85,NW,309,0.0,0.0,84,0.00,,-RA,0.24,VWS V14.00,2013-07-26 19:34:00,
2013-07-26 15:39:00,72.3,64.7,29.85,NW,309,0.0,0.0,77,0.00,,-RA,0.24,VWS V14.00,2013-07-26 19:39:00,
2013-07-26 15:44:00,72.1,63.4,29.85,NW,309,0.0,0.0,74,0.00,,-RA,0.24,VWS V14.00,2013-07-26 19:44:00,
2013-07-26 15:49:00,72.1,61.8,29.85,SW,220,0.0,0.0,70,0.00,,-RA,0.24,VWS V14.00,2013-07-26 19:49:00,
2013-07-26 15:54:00,72.3,61.2,29.85,SW,220,0.0,0.0,68,0.00,,-RA,0.24,VWS V14.00,2013-07-26 19:54:00,
2013-07-26 15:59:00,72.3,60.8,29.85,South,184,0.0,0.0,67,0.00,,-RA,0.24,VWS V14.00,2013-07-26 19:59:00,
2013-07-26 16:04:00,72.5,60.1,29.85,South,189,0.0,0.0,65,0.00,,-RA,0.24,VWS V14.00,2013-07-26 20:04:00,
2013-07-26 16:09:00,72.9,59.5,29.85,South,188,0.0,0.0,63,0.00,,-RA,0.24,VWS V14.00,2013-07-26 20:09:00,
2013-07-26 16:14:00,73.4,59.6,29.85,SSW,196,0.0,0.0,62,0.00,,-RA,0.24,VWS V14.00,2013-07-26 20:14:00,
2013-07-26 16:19:00,73.8,58.1,29.85,SSW,195,0.0,0.0,58,0.00,,-RA,0.24,VWS V14.00,2013-07-26 20:19:00,
2013-07-26 16:24:00,73.9,55.8,29.85,SW,217,0.0,0.0,53,0.00,,-RA,0.24,VWS V14.00,2013-07-26 20:24:00,
2013-07-26 16:29:00,74.3,56.1,29.85,SW,217,0.0,0.0,53,0.00,,-RA,0.24,VWS V14.00,2013-07-26 20:29:00,
2013-07-26 16:34:00,74.3,55.6,29.85,South,183,0.0,0.0,52,0.00,,-RA,0.24,VWS V14.00,2013-07-26 20:34:00,
2013-07-26 16:39:00,74.3,55.6,29.85,SE,124,0.0,0.0,52,0.00,,-RA,0.24,VWS V14.00,2013-07-26 20:39:00,
2013-07-26 16:44:00,74.7,55.9,29.83,South,175,0.0,0.0,52,0.00,,-RA,0.24,VWS V14.00,2013-07-26 20:44:00,
2013-07-26 16:49:00,74.7,55.9,29.83,SSE,147,0.0,0.0,52,0.00,,-RA,0.24,VWS V14.00,2013-07-26 20:49:00,
2013-07-26 16:54:00,74.8,56.0,29.83,South,172,0.0,0.0,52,0.00,,-RA,0.24,VWS V14.00,2013-07-26 20:54:00,
2013-07-26 16:59:00,74.8,54.4,29.83,SSW,205,0.0,0.0,49,0.00,,-RA,0.24,VWS V14.00,2013-07-26 20:59:00,
2013-07-26 17:04:00,74.7,54.2,29.83,ENE,77,0.0,0.0,49,0.00,,-RA,0.24,VWS V14.00,2013-07-26 21:04:00,
2013-07-26 17:09:00,74.8,55.0,29.83,SE,136,2.7,2.7,50,0.00,,-RA,0.24,VWS V14.00,2013-07-26 21:09:00,
2013-07-26 17:14:00,74.8,55.0,29.83,SE,130,0.0,0.0,50,0.00,,-RA,0.24,VWS V14.00,2013-07-26 21:14:00,
2013-07-26 17:19:00,74.7,54.2,29.83,SE,124,0.0,0.0,49,0.00,,-RA,0.24,VWS V14.00,2013-07-26 21:19:00,
2013-07-26 17:24:00,74.7,54.8,29.83,South,185,0.0,0.0,50,0.00,,-RA,0.24,VWS V14.00,2013-07-26 21:24:00,
2013-07-26 17:29:00,74.5,54.6,29.83,South,184,0.0,0.0,50,0.00,,-RA,0.24,VWS V14.00,2013-07-26 21:29:00,
2013-07-26 17:34:00,74.5,55.2,29.83,SE,139,0.0,0.0,51,0.00,,-RA,0.24,VWS V14.00,2013-07-26 21:34:00,
2013-07-26 17:39:00,74.5,55.7,29.83,SE,139,0.0,0.0,52,0.00,,-RA,0.24,VWS V14.00,2013-07-26 21:39:00,
2013-07-26 17:44:00,74.7,55.9,29.83,SE,140,0.0,0.0,52,0.00,,-RA,0.24,VWS V14.00,2013-07-26 21:44:00,
2013-07-26 17:49:00,74.5,55.7,29.83,SE,138,0.0,0.0,52,0.00,,-RA,0.24,VWS V14.00,2013-07-26 21:49:00,
2013-07-26 17:54:00,74.5,55.7,29.83,East,84,0.0,0.0,52,0.00,,-RA,0.24,VWS V14.00,2013-07-26 21:54:00,
2013-07-26 17:59:00,74.3,55.6,29.83,West,275,0.0,0.0,52,0.00,,-RA,0.24,VWS V14.00,2013-07-26 21:59:00,
2013-07-26 18:04:00,74.3,55.0,29.83,WNW,283,0.0,0.0,51,0.00,,-RA,0.24,VWS V14.00,2013-07-26 22:04:00,
2013-07-26 18:09:00,74.3,55.6,29.83,WNW,282,0.0,0.0,52,0.00,,-RA,0.24,VWS V14.00,2013-07-26 22:09:00,
2013-07-26 18:14:00,74.1,55.9,29.83,WNW,282,0.0,0.0,53,0.00,,-RA,0.24,VWS V14.00,2013-07-26 22:14:00,
2013-07-26 18:19:00,74.1,56.4,29.83,WNW,282,0.0,0.0,54,0.00,,-RA,0.24,VWS V14.00,2013-07-26 22:19:00,
2013-07-26 18:24:00,73.9,56.3,29.83,WNW,283,0.0,0.0,54,0.00,,-RA,0.24,VWS V14.00,2013-07-26 22:24:00,
2013-07-26 18:29:00,73.9,56.8,29.83,WNW,283,0.0,0.0,55,0.00,,-RA,0.24,VWS V14.00,2013-07-26 22:29:00,
2013-07-26 18:34:00,73.8,56.6,29.83,NNW,345,0.0,0.0,55,0.00,,-RA,0.24,VWS V14.00,2013-07-26 22:34:00,
2013-07-26 18:39:00,73.8,57.1,29.83,NNW,346,0.0,0.0,56,0.00,,-RA,0.24,VWS V14.00,2013-07-26 22:39:00,
2013-07-26 18:44:00,73.6,56.9,29.85,NNW,346,0.0,0.0,56,0.00,,-RA,0.24,VWS V14.00,2013-07-26 22:44:00,
2013-07-26 18:49:00,73.4,56.8,29.85,NNW,346,0.0,0.0,56,0.00,,-RA,0.24,VWS V14.00,2013-07-26 22:49:00,
2013-07-26 18:54:00,73.2,57.1,29.85,West,266,0.0,0.0,57,0.00,,-RA,0.24,VWS V14.00,2013-07-26 22:54:00,
2013-07-26 18:59:00,73.2,57.6,29.85,West,267,0.0,0.0,58,0.00,,-RA,0.24,VWS V14.00,2013-07-26 22:59:00,
2013-07-26 19:04:00,73.0,57.9,29.85,West,266,2.7,2.7,59,0.00,,-RA,0.24,VWS V14.00,2013-07-26 23:04:00,
2013-07-26 19:09:00,73.6,59.3,29.85,West,266,0.0,0.0,61,0.00,,-RA,0.24,VWS V14.00,2013-07-26 23:09:00,
2013-07-26 19:14:00,75.0,52.9,29.85,West,263,0.0,0.0,46,0.00,,-RA,0.24,VWS V14.00,2013-07-26 23:14:00,
2013-07-26 19:19:00,76.5,55.9,29.85,West,263,0.0,0.0,49,0.00,,-RA,0.24,VWS V14.00,2013-07-26 23:19:00,
2013-07-26 19:24:00,76.6,54.9,29.85,West,263,0.0,0.0,47,0.00,,-RA,0.24,VWS V14.00,2013-07-26 23:24:00,
2013-07-26 19:29:00,76.6,53.7,29.85,West,263,0.0,0.0,45,0.00,,-RA,0.24,VWS V14.00,2013-07-26 23:29:00,
2013-07-26 19:34:00,76.1,52.6,29.85,West,263,0.0,0.0,44,0.00,,-RA,0.24,VWS V14.00,2013-07-26 23:34:00,
2013-07-26 19:39:00,75.9,52.5,29.85,West,263,0.0,0.0,44,0.00,,-RA,0.24,VWS V14.00,2013-07-26 23:39:00,
2013-07-26 19:44:00,75.9,51.8,29.85,West,263,0.0,0.0,43,0.00,,-RA,0.24,VWS V14.00,2013-07-26 23:44:00,
2013-07-26 19:49:00,75.6,52.1,29.85,West,263,0.0,0.0,44,0.00,,-RA,0.24,VWS V14.00,2013-07-26 23:49:00,
2013-07-26 19:54:00,75.6,52.8,29.85,West,263,0.0,0.0,45,0.00,,-RA,0.24,VWS V14.00,2013-07-26 23:54:00,
2013-07-26 19:59:00,75.6,52.1,29.85,West,263,0.0,0.0,44,0.00,,-RA,0.24,VWS V14.00,2013-07-26 23:59:00,
2013-07-26 20:04:00,74.8,51.5,29.85,West,263,0.0,0.0,44,0.00,,-RA,0.24,VWS V14.00,2013-07-27 00:04:00,
2013-07-26 20:09:00,73.6,51.0,29.85,West,263,0.0,0.0,45,0.00,,-RA,0.24,VWS V14.00,2013-07-27 00:09:00,
2013-07-26 20:14:00,72.1,51.4,29.85,West,263,0.0,0.0,48,0.00,,-RA,0.24,VWS V14.00,2013-07-27 00:14:00,
2013-07-26 20:19:00,71.2,52.2,29.85,West,263,0.0,0.0,51,0.00,,-RA,0.24,VWS V14.00,2013-07-27 00:19:00,
2013-07-26 20:24:00,70.3,51.9,29.85,West,263,0.0,0.0,52,0.00,,-RA,0.24,VWS V14.00,2013-07-27 00:24:00,
2013-07-26 20:29:00,69.8,52.9,29.85,West,263,0.0,0.0,55,0.00,,-RA,0.24,VWS V14.00,2013-07-27 00:29:00,
2013-07-26 20:34:00,69.4,54.0,29.85,West,263,0.0,0.0,58,0.00,,-RA,0.24,VWS V14.00,2013-07-27 00:34:00,
2013-07-26 20:39:00,69.3,55.2,29.85,West,263,0.0,0.0,61,0.00,,-RA,0.24,VWS V14.00,2013-07-27 00:39:00,
2013-07-26 20:44:00,69.1,55.5,29.85,West,263,0.0,0.0,62,0.00,,-RA,0.24,VWS V14.00,2013-07-27 00:44:00,
2013-07-26 20:49:00,68.9,56.2,29.85,West,263,0.0,0.0,64,0.00,,-RA,0.24,VWS V14.00,2013-07-27 00:49:00,
2013-07-26 20:54:00,68.7,56.1,29.85,West,263,0.0,0.0,64,0.00,,-RA,0.24,VWS V14.00,2013-07-27 00:54:00,
2013-07-26 20:59:00,68.5,56.3,29.85,West,263,0.0,0.0,65,0.00,,-RA,0.24,VWS V14.00,2013-07-27 00:59:00,
2013-07-26 21:04:00,68.4,56.2,29.85,West,263,0.0,0.0,65,0.00,,-RA,0.24,VWS V14.00,2013-07-27 01:04:00,
2013-07-26 21:09:00,68.2,56.0,29.85,West,263,0.0,0.0,65,0.00,,-RA,0.24,VWS V14.00,2013-07-27 01:09:00,
2013-07-26 21:14:00,68.0,56.2,29.85,West,263,0.0,0.0,66,0.00,,-RA,0.24,VWS V14.00,2013-07-27 01:14:00,
2013-07-26 21:19:00,67.8,56.1,29.85,West,263,0.0,0.0,66,0.00,,-RA,0.24,VWS V14.00,2013-07-27 01:19:00,
2013-07-26 21:24:00,67.8,56.1,29.85,West,263,0.0,0.0,66,0.00,,-RA,0.24,VWS V14.00,2013-07-27 01:24:00,
2013-07-26 21:29:00,67.6,56.3,29.88,West,263,0.0,0.0,67,0.00,,-RA,0.24,VWS V14.00,2013-07-27 01:29:00,
2013-07-26 21:34:00,67.6,56.3,29.88,West,263,0.0,0.0,67,0.00,,-RA,0.24,VWS V14.00,2013-07-27 01:34:00,
2013-07-26 21:39:00,67.5,56.5,29.88,West,263,0.0,0.0,68,0.00,,-RA,0.24,VWS V14.00,2013-07-27 01:39:00,
2013-07-26 21:44:00,67.3,56.4,29.88,West,263,0.0,0.0,68,0.00,,-RA,0.24,VWS V14.00,2013-07-27 01:44:00,
2013-07-26 21:49:00,67.1,56.2,29.88,West,263,0.0,0.0,68,0.00,,-RA,0.24,VWS V14.00,2013-07-27 01:49:00,
2013-07-26 21:54:00,67.1,56.6,29.88,West,263,0.0,0.0,69,0.00,,-RA,0.24,VWS V14.00,2013-07-27 01:54:00,
2013-07-26 21:59:00,66.9,56.8,29.88,West,263,0.0,0.0,70,0.00,,-RA,0.24,VWS V14.00,2013-07-27 01:59:00,
2013-07-26 22:04:00,66.7,56.7,29.88,West,263,0.0,0.0,70,0.00,,-RA,0.24,VWS V14.00,2013-07-27 02:04:00,
2013-07-26 22:09:00,66.6,56.9,29.88,West,263,0.0,0.0,71,0.00,,-RA,0.24,VWS V14.00,2013-07-27 02:09:00,
2013-07-26 22:14:00,66.6,57.3,29.88,West,263,0.0,0.0,72,0.00,,-RA,0.24,VWS V14.00,2013-07-27 02:14:00,
2013-07-26 22:19:00,66.6,57.3,29.88,West,263,0.0,0.0,72,0.00,,-RA,0.24,VWS V14.00,2013-07-27 02:19:00,
2013-07-26 22:24:00,66.6,58.0,29.88,West,263,0.0,0.0,74,0.00,,-RA,0.24,VWS V14.00,2013-07-27 02:24:00,
2013-07-26 22:29:00,66.6,57.7,29.88,West,263,0.0,0.0,73,0.00,,-RA,0.24,VWS V14.00,2013-07-27 02:29:00,
2013-07-26 22:34:00,66.6,58.0,29.88,West,263,0.0,0.0,74,0.00,,-RA,0.24,VWS V14.00,2013-07-27 02:34:00,
2013-07-26 22:39:00,66.6,58.4,29.88,West,263,0.0,0.0,75,0.00,,-RA,0.24,VWS V14.00,2013-07-27 02:39:00,
2013-07-26 22:44:00,66.7,58.9,29.88,West,263,0.0,0.0,76,0.00,,-RA,0.24,VWS V14.00,2013-07-27 02:44:00,
2013-07-26 22:49:00,66.7,59.3,29.88,West,263,0.0,0.0,77,0.00,,-RA,0.24,VWS V14.00,2013-07-27 02:49:00,
2013-07-26 22:54:00,66.7,59.3,29.88,West,263,0.0,0.0,77,0.00,,-RA,0.24,VWS V14.00,2013-07-27 02:54:00,
2013-07-26 22:59:00,66.7,59.3,29.88,West,263,0.0,0.0,77,0.00,,-RA,0.24,VWS V14.00,2013-07-27 02:59:00,
2013-07-26 23:04:00,66.7,59.3,29.88,West,263,0.0,0.0,77,0.00,,-RA,0.24,VWS V14.00,2013-07-27 03:04:00,
2013-07-26 23:09:00,66.7,59.7,29.88,West,263,0.0,0.0,78,0.00,,-RA,0.24,VWS V14.00,2013-07-27 03:09:00,
2013-07-26 23:14:00,66.7,59.7,29.88,West,263,0.0,0.0,78,0.00,,-RA,0.24,VWS V14.00,2013-07-27 03:14:00,
2013-07-26 23:19:00,66.7,59.7,29.88,West,263,0.0,0.0,78,0.00,,-RA,0.24,VWS V14.00,2013-07-27 03:19:00,
2013-07-26 23:24:00,66.6,59.1,29.88,West,263,0.0,0.0,77,0.00,,-RA,0.24,VWS V14.00,2013-07-27 03:24:00,
2013-07-26 23:29:00,66.4,59.0,29.88,West,263,0.0,0.0,77,0.00,,-RA,0.24,VWS V14.00,2013-07-27 03:29:00,
2013-07-26 23:34:00,66.4,59.0,29.88,West,263,0.0,0.0,77,0.00,,-RA,0.24,VWS V14.00,2013-07-27 03:34:00,
2013-07-26 23:39:00,66.2,58.8,29.88,West,263,0.0,0.0,77,0.00,,-RA,0.24,VWS V14.00,2013-07-27 03:39:00,
2013-07-26 23:44:00,66.0,58.6,29.88,West,263,0.0,0.0,77,0.00,,-RA,0.24,VWS V14.00,2013-07-27 03:44:00,
2013-07-26 23:49:00,65.8,58.8,29.88,West,263,0.0,0.0,78,0.00,,-RA,0.24,VWS V14.00,2013-07-27 03:49:00,
2013-07-26 23:54:00,65.8,58.8,29.88,West,263,0.0,0.0,78,0.00,,-RA,0.24,VWS V14.00,2013-07-27 03:54:00,
2013-07-26 23:59:00,65.8,58.8,29.88,West,263,0.0,0.0,78,0.00,,-RA,0.24,VWS V14.00,2013-07-27 03:59:00,